George, South Africa

1:57 AM SAST on May 25, 2017 (GMT +0200)
George

Weather History for FAGG - January, 2014

Change the Weather History Date:

Wednesday, January 22, 2014

  Actual Average Record
Temperature  
Mean Temperature 74 °F -  
Max Temperature 89 °F 74 °F 84 °F (2017)
Min Temperature 60 °F 59 °F 55 °F (2017)
Cooling Degree Days 10    
Growing Degree Days 24 (Base 50)    
Moisture  
Dew Point 62 °F    
Average Humidity 64    
Maximum Humidity 94    
Minimum Humidity 26    
Precipitation  
Precipitation 0.04 in - - ()
Sea Level Pressure  
Sea Level Pressure 29.79 in    
Wind  
Wind Speed 4 mph ()    
Max Wind Speed 12 mph    
Max Gust Speed -    
Visibility 9.2 miles    
Events      
Averages and records for this station are not official NWS values.
T = Trace of Precipitation, MM = Missing Value Source: Averaged Metar Reports

Daily Weather History Graph

Daily Weather History Graph

Search for Another Location

Airport or City:

Trip Planner

Search our weather history database for the weather conditions in past years. The results will help you decide how hot, cold, wet, or windy it might be!

Date:

Astronomy

Jan. 22, 2014 Rise Set
Actual Time 5:41 AM SAST 7:42 PM SAST
Civil Twilight 5:13 AM SAST 8:09 PM SAST
Nautical Twilight 4:39 AM SAST 8:43 PM SAST
Astronomical Twilight 4:03 AM SAST 9:19 PM SAST
Moon 11:00 PM SAST (1/22) 11:15 AM SAST (1/22)
Length of Visible Light 14h 56m
Length of Day
14h 00m
Waning Gibbous, 68% of the Moon is Illuminated
Jan 22
Waning Gibbous
Jan 24
Last Quarter
Jan 30
New
Feb 6
First Quarter
Feb 15
Full

Hourly Weather History & Observations

Time (SAST) Temp. Heat Index Dew Point Humidity Pressure Visibility Wind Dir Wind Speed Gust Speed Precip Events Conditions
12:00 AM 66.2 °F - 62.6 °F 88% 29.95 in 6.2 mi NNW 3.5 mph - N/A   Partly Cloudy
2:00 AM 64 °F - 61 °F 88% 29.91 in 6 mi NW 2.3 mph - -  
4:00 AM 60.8 °F - 59.0 °F 94% 29.86 in - NNW 4.6 mph - N/A   Clear
5:00 AM 61 °F - 58 °F 88% 29.87 in 12 mi North 2.3 mph - -  
5:00 AM 62.6 °F - 59.0 °F 88% 29.86 in - North 2.3 mph - N/A   Clear
6:00 AM 60.8 °F - 59.0 °F 94% 29.86 in - North 3.5 mph - N/A   Clear
7:00 AM 62.6 °F - 60.8 °F 94% 29.86 in 6.2 mi WNW 4.6 mph - N/A   Partly Cloudy
8:00 AM 68 °F - 65 °F 87% 29.85 in 12 mi West 4.6 mph - -  
8:00 AM 68.0 °F - 64.4 °F 88% 29.86 in - West 3.5 mph - N/A   Clear
9:00 AM 75.2 °F - 64.4 °F 69% 29.83 in - Variable 2.3 mph - N/A   Clear
10:00 AM 80.6 °F 82.3 °F 64.4 °F 58% 29.83 in - West 3.5 mph - N/A   Clear
11:00 AM 84 °F - 62 °F 37% 29.82 in 12 mi SSW 4.6 mph - -  
11:00 AM 84.2 °F 85.0 °F 62.6 °F 48% 29.80 in - Variable 4.6 mph - N/A   Clear
12:00 PM 86.0 °F 86.6 °F 62.6 °F 45% 29.77 in - South 4.6 mph - N/A   Clear
1:00 PM 87.8 °F 87.1 °F 59.0 °F 38% 29.77 in - South 6.9 mph - N/A   Clear
2:00 PM 87 °F - 57 °F 26% 29.76 in 12 mi SE 5.8 mph - -  
2:00 PM 87.8 °F 86.5 °F 57.2 °F 35% 29.74 in - SE 5.8 mph - N/A   Clear
3:00 PM 87.8 °F 86.1 °F 55.4 °F 33% 29.74 in - SSE 8.1 mph - N/A   Clear
4:00 PM 87.8 °F 85.7 °F 53.6 °F 31% 29.71 in 6.2 mi SSE 9.2 mph - N/A   Partly Cloudy
5:00 PM 87 °F - 59 °F 29% 29.70 in 12 mi SSE 8.1 mph - -   Scattered Clouds
5:00 PM 87.8 °F 87.6 °F 60.8 °F 40% 29.68 in - SSE 8.1 mph - N/A   Clear
6:00 PM 84.2 °F 85.0 °F 62.6 °F 48% 29.68 in - SSE 5.8 mph - N/A   Clear
7:00 PM 80.6 °F 83.2 °F 68.0 °F 65% 29.68 in - SSE 3.5 mph - N/A   Clear
8:00 PM 74 °F - 68 °F 76% 29.72 in 12 mi 2.3 mph - -   Partly Cloudy
8:00 PM 75.2 °F - 68.0 °F 78% 29.71 in - Variable 2.3 mph - N/A   Clear
11:00 PM 71.6 °F - 69.8 °F 94% 29.77 in 4.3 mi SW 11.5 mph - N/A   Scattered Clouds